Location: Recife
(8.0585°S, 34.8848°W)
Time: 07:02:22
(UTC-03:00)

N. Korean satellite - Pass Details

Date: 02 October 2021
Orbit: 450 x 495 km, 97.3° (Epoch: 15 October)

Event Time Altitude Azimuth Distance (km) Brightness Sun altitude
Rises 03:44:20 0° 26° (NNE) 2,562 10.5 -20.3°
Reaches altitude 10° 03:46:31 10° 36° (NE) 1,687 9.7 -19.8°
Maximum altitude 03:49:50 34° 102° (ESE) 829 8.4 -19.0°
Drops below altitude 10° 03:53:11 10° 168° (SSE) 1,698 9.5 -18.1°
Sets 03:55:23 0° 177° (S) 2,583 10.4 -17.6°
